This demonstration page uses our WeatherBlox Daily Observations layout. Learn more.

Hourly Observations for April 27, 2016

Temp ( °F °C ) Dew Point ( °F °C ) Humidity (%) Winds ( mph kmh ) Pressure ( in mb ) Visibility ( mi km ) Precip ( " mm )
12:15 am 00:15 Clear 51 10.6 48 9 90 90 NNE 16 26 29.56 1001 10 16.0934 0 0
12:35 am 00:35 Clear 51 10.7 48 9.1 90 90 NNE 12 19 29.59 1002 10 16.0934 0 0
12:55 am 00:55 Clear 51 10.8 48 9.1 89 89 NNE 12 19 29.59 1002 10 16.0934 0 0
1:15 am 01:15 Mostly Cloudy 51 10.8 48 9.1 89 89 NNE 16 26 29.59 1002 10 16.0934 0 0
1:35 am 01:35 Cloudy 51 10.5 48 9 91 91 NNE 18 30 29.56 1001 10 16.0934 0 0
1:55 am 01:55 Cloudy with Nearby Thunderstorms 50 10.1 48 9 93 93 N 16 26 29.56 1001 10 16.0934 0 0
2:15 am 02:15 Cloudy with Nearby Thunderstorms 50 10.1 48 9 93 93 N 16 26 29.56 1001 10 16.0934 0 0
2:35 am 02:35 Cloudy with Nearby Thunderstorms 50 10 48 9 94 94 N 12 19 29.56 1001 4 6.43736 0.04 1.016
2:55 am 02:55 Cloudy with Rain 49 9.7 48 8.9 95 95 NNW 10 17 29.53 1000 3 4.82802 0.11 2.794
3:15 am 03:15 Cloudy with Heavy Rain 49 9.6 48 8.9 95 95 NNW 14 22 29.53 1000 2.5 4.02335 0.19 4.826
3:35 am 03:35 Cloudy with Heavy Rain 49 9.3 47 8.6 95 95 NW 14 22 29.53 1000 2.5 4.02335 0.43 10.922
3:55 am 03:55 Cloudy 49 9.3 47 8.6 95 95 NNW 16 26 29.5 999 2 3.21868 0.75 19.05
4:15 am 04:15 Cloudy with Thunderstorms 49 9.3 47 8.6 95 95 NW 15 24 29.5 999 3 4.82802 0.16 4.064
4:35 am 04:35 Cloudy with Heavy Thunderstorms 48 9.1 47 8.5 96 96 NW 20 31 29.5 999 3 4.82802 0.32 8.128
4:55 am 04:55 Cloudy with Rain 48 8.8 46 8 95 95 NW 21 33 29.5 999 3 4.82802 0.49 12.446
5:15 am 05:15 Cloudy with Rain 48 8.7 46 7.7 94 94 NNW 20 31 29.53 1000 4 6.43736 0.12 3.048
5:35 am 05:35 Cloudy with Rain 47 8.5 45 7.4 93 93 NNW 24 39 29.5 999 4 6.43736 0.22 5.588
5:55 am 05:55 Cloudy with Rain 47 8.2 45 7 92 92 NW 26 43 29.53 1000 5 8.0467 0.26 6.604
6:15 am 06:15 Cloudy with Rain 46 8 44 6.5 90 90 NW 29 46 29.5 999 5 8.0467 0.07 1.778
6:35 am 06:35 Cloudy with Rain 46 7.6 43 6.3 92 92 NW 24 39 29.53 1000 4 6.43736 0.16 4.064
6:55 am 06:55 Cloudy with Rain 46 7.6 43 6.2 91 91 NW 20 31 29.53 1000 7 11.26538 0.19 4.826
7:15 am 07:15 Cloudy with Light Rain 46 7.6 43 6.2 91 91 NW 18 30 29.53 1000 7 11.26538 0.03 0.762
7:35 am 07:35 Cloudy with Light Rain 46 7.6 43 6.1 90 90 W 15 24 29.56 1001 10 16.0934 0.05 1.27
7:55 am 07:55 Cloudy with Rain 46 7.6 43 6.1 90 90 W 17 28 29.56 1001 7 11.26538 0.08 2.032
8:15 am 08:15 Cloudy with Light Rain 46 7.5 43 6.1 91 91 W 20 31 29.56 1001 7 11.26538 0.04 1.016
8:35 am 08:35 Cloudy with Light Rain 46 7.5 43 6.1 91 91 W 18 30 29.56 1001 7 11.26538 0.08 2.032
8:55 am 08:55 Cloudy with Rain 45 7.3 43 6 92 92 W 15 24 29.56 1001 5 8.0467 0.12 3.048
9:15 am 09:15 Cloudy with Rain 45 7.2 42 5.7 90 90 WNW 15 24 29.56 1001 5 8.0467 0.04 1.016
9:35 am 09:35 Cloudy with Rain 44 6.9 41 5.2 89 89 WNW 20 31 29.56 1001 5 8.0467 0.08 2.032
9:55 am 09:55 Cloudy with Light Rain 44 6.5 40 4.5 87 87 WNW 20 31 29.56 1001 5 8.0467 0.1 2.54
10:15 am 10:15 Cloudy with Light Rain 43 6.1 40 4.2 88 88 WNW 24 39 29.53 1000 10 16.0934 0 0
10:35 am 10:35 Cloudy with Light Drizzle 43 6.1 40 4.2 88 88 WNW 23 37 29.53 1000 10 16.0934 0 0
10:55 am 10:55 Cloudy 44 6.5 40 4.2 85 85 NW 25 41 29.53 1000 10 16.0934 0 0
11:15 am 11:15 Cloudy 43 6 39 3.7 85 85 NW 29 46 29.53 1000 10 16.0934 0 0
11:35 am 11:35 Cloudy 43 6.2 38 3.5 83 83 NW 23 37 29.56 1001 10 16.0934 0 0
11:55 am 11:55 Cloudy 43 6.1 38 3.5 84 84 NW 25 41 29.53 1000 10 16.0934 0 0
12:15 pm 12:15 Cloudy 43 6.1 38 3.6 84 84 NW 26 43 29.56 1001 10 16.0934 0 0
12:35 pm 12:35 Cloudy 42 5.7 38 3.2 84 84 NW 22 35 29.56 1001 10 16.0934 0 0
12:55 pm 12:55 Cloudy 43 5.9 37 3 82 82 NW 22 35 29.59 1002 10 16.0934 0 0
1:15 pm 13:15 Cloudy 43 6 37 2.9 81 81 NW 24 39 29.59 1002 10 16.0934 0 0
1:35 pm 13:35 Cloudy 43 6.1 37 3 81 81 WNW 28 44 29.59 1002 10 16.0934 0 0
1:55 pm 13:55 Cloudy 43 6.2 37 2.9 80 80 WNW 24 39 29.59 1002 10 16.0934 0 0
2:15 pm 14:15 Cloudy 43 6.1 37 2.7 79 79 WNW 29 46 29.59 1002 10 16.0934 0 0
2:35 pm 14:35 Cloudy 44 6.4 37 2.9 79 79 WNW 26 43 29.62 1003 10 16.0934 0 0
2:55 pm 14:55 Cloudy 43 6.2 37 2.9 80 80 WNW 28 44 29.62 1003 10 16.0934 0 0
3:15 pm 15:15 Cloudy 44 6.5 37 2.8 77 77 NW 26 43 29.62 1003 10 16.0934 0 0
3:35 pm 15:35 Cloudy 43 6.2 37 2.6 78 78 NW 25 41 29.62 1003 10 16.0934 0 0
3:55 pm 15:55 Cloudy 43 6.2 37 2.6 78 78 NW 29 46 29.65 1004 10 16.0934 0 0
4:15 pm 16:15 Cloudy 43 6.3 37 2.7 78 78 NW 24 39 29.65 1004 10 16.0934 0 0
4:35 pm 16:35 Cloudy 43 6.1 37 2.5 78 78 NW 23 37 29.65 1004 10 16.0934 0 0
4:55 pm 16:55 Cloudy 42 5.8 36 2.3 78 78 NW 25 41 29.65 1004 10 16.0934 0 0
5:15 pm 17:15 Cloudy 42 5.5 36 2.4 81 81 NW 23 37 29.68 1005 10 16.0934 0 0
5:35 pm 17:35 Cloudy 42 5.5 37 2.5 81 81 NW 24 39 29.68 1005 10 16.0934 0 0
5:55 pm 17:55 Cloudy with Light Rain 41 5 37 2.5 84 84 NW 24 39 29.71 1006 10 16.0934 0 0
6:15 pm 18:15 Cloudy with Light Rain 40 4.7 37 2.5 86 86 NW 26 43 29.71 1006 10 16.0934 0.01 0.254
6:35 pm 18:35 Cloudy with Light Rain 40 4.5 37 2.5 87 87 NW 26 43 29.71 1006 10 16.0934 0.02 0.508
6:55 pm 18:55 Cloudy with Light Rain 40 4.5 37 2.5 87 87 NW 21 33 29.71 1006 10 16.0934 0.03 0.762
7:15 pm 19:15 Cloudy with Light Rain 40 4.5 36 2.4 86 86 NW 24 39 29.74 1007 10 16.0934 0.01 0.254
7:35 pm 19:35 Cloudy with Light Rain 40 4.5 36 2.2 85 85 NNW 21 33 29.74 1007 10 16.0934 0.01 0.254
7:55 pm 19:55 Mostly Cloudy 40 4.4 36 2.4 87 87 NNW 14 22 29.74 1007 10 16.0934 0.01 0.254
8:15 pm 20:15 Cloudy 39 4.1 36 2.2 88 88 NNW 13 20 29.77 1008 10 16.0934 0 0
8:35 pm 20:35 Cloudy 40 4.2 36 2.2 87 87 NW 16 26 29.77 1008 10 16.0934 0 0
8:55 pm 20:55 Cloudy 40 4.5 36 2 84 84 NW 12 19 29.77 1008 10 16.0934 0 0
9:15 pm 21:15 Cloudy 40 4.3 36 2 85 85 NW 18 30 29.8 1009 10 16.0934 0 0
9:35 pm 21:35 Cloudy 40 4.2 35 1.5 83 83 WNW 20 31 29.83 1010 10 16.0934 0 0
9:55 pm 21:55 Cloudy 39 4.1 35 1.5 83 83 NW 20 31 29.83 1010 10 16.0934 0 0
10:15 pm 22:15 Cloudy 39 4 34 1.1 82 82 NW 18 30 29.83 1010 10 16.0934 0 0
10:35 pm 22:35 Mostly Cloudy 39 3.7 33 0.7 81 81 NW 20 31 29.85 1011 10 16.0934 0 0
10:55 pm 22:55 Partly Cloudy 38 3.5 34 0.9 83 83 NW 14 22 29.85 1011 10 16.0934 0 0
11:15 pm 23:15 Clear 38 3.1 33 0.5 83 83 WNW 12 19 29.85 1011 10 16.0934 0 0
11:35 pm 23:35 Clear 37 3 32 0.2 82 82 WNW 15 24 29.85 1011 10 16.0934 0 0
11:55 pm 23:55 Clear 37 3 33 0.4 83 83 WNW 14 22 29.85 1011 10 16.0934 0 0

Powered by AerisWeather